Data No.,UTC Date,UTC Time,Latitude,Longitude,Course(deg),Temp(degC),Sal(psu)
21,2011/6/22,6:24:00,00-33.7400N,118-04.4500E,87,28.986,32.5267
22,2011/6/22,6:25:00,00-33.7500N,118-04.7000E,87,28.998,32.5287
23,2011/6/22,6:26:00,00-33.7600N,118-04.9300E,87,28.996,32.5309
24,2011/6/22,6:27:00,00-33.7700N,118-05.1600E,87,29.019,32.5322
25,2011/6/22,6:28:00,00-33.7800N,118-05.3900E,87,29.036,32.5353
26,2011/6/22,6:29:00,00-33.7900N,118-05.6200E,88,29.031,32.5383
27,2011/6/22,6:30:00,00-33.8000N,118-05.8500E,87,29.003,32.5381
28,2011/6/22,6:31:00,00-33.8100N,118-06.0700E,87,29.022,32.5362
29,2011/6/22,6:32:00,00-33.8200N,118-06.3100E,87,29.013,32.5317
30,2011/6/22,6:33:00,00-33.8300N,118-06.5300E,87,29.02,32.5281
31,2011/6/22,6:34:00,00-33.8400N,118-06.7500E,87,29.035,32.5256
32,2011/6/22,6:35:00,00-33.8500N,118-06.9800E,87,29.021,32.5214
33,2011/6/22,6:36:00,00-33.8600N,118-07.2100E,87,29.021,32.5179
34,2011/6/22,6:37:00,00-33.8700N,118-07.4400E,88,29.032,32.5116
35,2011/6/22,6:38:00,00-33.8800N,118-07.6700E,87,29.014,32.5085
36,2011/6/22,6:39:00,00-33.8900N,118-07.8900E,86,29.028,32.506
37,2011/6/22,6:40:00,00-33.9000N,118-08.1200E,86,29.024,32.5031
38,2011/6/22,6:41:00,00-33.9100N,118-08.3400E,87,29.036,32.5014
39,2011/6/22,6:42:00,00-33.9200N,118-08.5600E,86,29.031,32.4999
40,2011/6/22,6:43:00,00-33.9400N,118-08.7900E,86,29.053,32.5007
41,2011/6/22,6:44:00,00-33.9500N,118-09.0200E,86,29.073,32.5011
42,2011/6/22,6:45:00,00-33.9600N,118-09.2400E,86,29.056,32.5008
43,2011/6/22,6:46:00,00-33.9800N,118-09.4700E,86,29.036,32.4996
44,2011/6/22,6:47:00,00-33.9900N,118-09.6900E,87,29.036,32.4948
45,2011/6/22,6:48:00,00-34.0000N,118-09.9200E,86,29.043,32.4887
46,2011/6/22,6:49:00,00-34.0200N,118-10.1500E,86,29.03,32.4855
47,2011/6/22,6:50:00,00-34.0300N,118-10.3800E,86,29.034,32.4841
48,2011/6/22,6:51:00,00-34.0400N,118-10.6000E,86,29.041,32.4845
49,2011/6/22,6:52:00,00-34.0500N,118-10.8400E,87,29.034,32.4866
50,2011/6/22,6:53:00,00-34.0700N,118-11.0700E,87,29.007,32.4897
51,2011/6/22,6:54:00,00-34.0800N,118-11.3000E,86,29.019,32.4892
52,2011/6/22,6:55:00,00-34.0900N,118-11.5300E,87,29.039,32.49
53,2011/6/22,6:56:00,00-34.1000N,118-11.7500E,87,29.024,32.497
54,2011/6/22,6:57:00,00-34.1100N,118-11.9800E,87,29.042,32.5026
55,2011/6/22,6:58:00,00-34.1200N,118-12.2100E,87,29.066,32.5
56,2011/6/22,6:59:00,00-34.1300N,118-12.4400E,86,29.073,32.5099
57,2011/6/22,7:00:00,00-34.1500N,118-12.6600E,86,29.095,32.5187
58,2011/6/22,7:01:00,00-34.1600N,118-12.8900E,86,29.114,32.5284
59,2011/6/22,7:02:00,00-34.1700N,118-13.1200E,87,29.104,32.5468
60,2011/6/22,7:03:00,00-34.1900N,118-13.3500E,86,29.099,32.5568
61,2011/6/22,7:04:00,00-34.2000N,118-13.5800E,86,29.078,32.5604
62,2011/6/22,7:05:00,00-34.2100N,118-13.8000E,87,29.052,32.565
63,2011/6/22,7:06:00,00-34.2300N,118-14.0300E,85,29.088,32.5627
64,2011/6/22,7:07:00,00-34.2500N,118-14.2600E,85,29.085,32.5672
65,2011/6/22,7:08:00,00-34.2600N,118-14.4900E,86,29.062,32.5792
66,2011/6/22,7:09:00,00-34.2800N,118-14.7200E,86,29.052,32.5807
67,2011/6/22,7:10:00,00-34.2900N,118-14.9400E,87,29.04,32.5766
68,2011/6/22,7:11:00,00-34.3000N,118-15.1700E,86,29.039,32.5731
69,2011/6/22,7:12:00,00-34.3200N,118-15.4000E,86,29.047,32.5712
70,2011/6/22,7:13:00,00-34.3300N,118-15.6300E,86,29.048,32.5719
71,2011/6/22,7:14:00,00-34.3500N,118-15.8600E,86,29.065,32.5739
72,2011/6/22,7:15:00,00-34.3600N,118-16.0800E,86,29.066,32.5764
73,2011/6/22,7:16:00,00-34.3800N,118-16.3100E,86,29.076,32.5773
74,2011/6/22,7:17:00,00-34.3900N,118-16.5400E,86,29.073,32.5809
76,2011/6/22,7:19:00,00-34.4200N,118-17.0100E,86,29.062,32.5784
77,2011/6/22,7:20:00,00-34.4400N,118-17.2400E,86,29.057,32.5746
78,2011/6/22,7:21:00,00-34.4600N,118-17.4700E,86,29.051,32.5712
79,2011/6/22,7:22:00,00-34.4700N,118-17.7000E,86,29.034,32.5661
80,2011/6/22,7:23:00,00-34.4900N,118-17.9300E,85,29.031,32.5601
81,2011/6/22,7:24:00,00-34.5000N,118-18.1600E,85,29.045,32.555
82,2011/6/22,7:25:00,00-34.5200N,118-18.3900E,85,29.012,32.5434
83,2011/6/22,7:26:00,00-34.5400N,118-18.6200E,86,29.007,32.5346
84,2011/6/22,7:27:00,00-34.5500N,118-18.8500E,86,28.987,32.5329
85,2011/6/22,7:28:00,00-34.5600N,118-19.0800E,86,28.985,32.5331
86,2011/6/22,7:29:00,00-34.5800N,118-19.3200E,84,29.012,32.5331
87,2011/6/22,7:30:00,00-34.6000N,118-19.5500E,84,29.032,32.5279
88,2011/6/22,7:31:00,00-34.6200N,118-19.7800E,85,29.012,32.4863
89,2011/6/22,7:32:00,00-34.6400N,118-20.0100E,85,29.002,32.4624
90,2011/6/22,7:33:00,00-34.6600N,118-20.2400E,84,28.994,32.4594
91,2011/6/22,7:34:00,00-34.6800N,118-20.4800E,84,28.991,32.4447
92,2011/6/22,7:35:00,00-34.7000N,118-20.7000E,84,28.974,32.4286
93,2011/6/22,7:36:00,00-34.7200N,118-20.9400E,84,28.968,32.4241
94,2011/6/22,7:37:00,00-34.7500N,118-21.1700E,84,28.948,32.4165
95,2011/6/22,7:38:00,00-34.7700N,118-21.4000E,84,28.936,32.4104
96,2011/6/22,7:39:00,00-34.7900N,118-21.6300E,83,28.942,32.4052
97,2011/6/22,7:40:00,00-34.8200N,118-21.8700E,84,28.933,32.3983
98,2011/6/22,7:41:00,00-34.8300N,118-22.0900E,85,28.93,32.4019
99,2011/6/22,7:42:00,00-34.8500N,118-22.3200E,86,28.97,32.4058
100,2011/6/22,7:43:00,00-34.8600N,118-22.5500E,88,28.969,32.4042
101,2011/6/22,7:44:00,00-34.8700N,118-22.7800E,88,28.962,32.4121
102,2011/6/22,7:45:00,00-34.8800N,118-23.0000E,87,28.97,32.4168
103,2011/6/22,7:46:00,00-34.8900N,118-23.2600E,86,28.969,32.4243
104,2011/6/22,7:47:00,00-34.9000N,118-23.4900E,86,28.98,32.4308
105,2011/6/22,7:48:00,00-34.9100N,118-23.7100E,87,28.96,32.425
106,2011/6/22,7:49:00,00-34.9200N,118-23.9500E,89,28.948,32.4305
107,2011/6/22,7:50:00,00-34.9200N,118-24.1800E,88,28.962,32.4355
108,2011/6/22,7:51:00,00-34.9300N,118-24.4100E,88,28.968,32.4327
109,2011/6/22,7:52:00,00-34.9300N,118-24.6400E,88,28.969,32.4362
110,2011/6/22,7:53:00,00-34.9400N,118-24.8600E,88,28.972,32.4368
111,2011/6/22,7:54:00,00-34.9400N,118-25.1000E,88,28.991,32.4401
112,2011/6/22,7:55:00,00-34.9500N,118-25.3300E,88,28.985,32.4363
113,2011/6/22,7:56:00,00-34.9500N,118-25.5600E,89,28.971,32.4394
114,2011/6/22,7:57:00,00-34.9500N,118-25.7900E,89,28.948,32.4457
115,2011/6/22,7:58:00,00-34.9600N,118-26.0200E,89,28.949,32.4562
116,2011/6/22,7:59:00,00-34.9600N,118-26.2500E,89,28.941,32.4665
117,2011/6/22,8:00:00,00-34.9600N,118-26.4700E,88,28.963,32.4715
118,2011/6/22,8:01:00,00-34.9700N,118-26.7000E,88,28.974,32.4731
119,2011/6/22,8:02:00,00-34.9700N,118-26.9400E,88,28.965,32.4727
120,2011/6/22,8:03:00,00-34.9800N,118-27.1600E,88,28.964,32.4774
121,2011/6/22,8:04:00,00-34.9900N,118-27.4000E,87,28.96,32.4827
122,2011/6/22,8:05:00,00-34.9900N,118-27.6200E,88,28.947,32.49
123,2011/6/22,8:06:00,00-35.0000N,118-27.8500E,88,28.913,32.4968
124,2011/6/22,8:07:00,00-35.0000N,118-28.0800E,88,28.91,32.501
125,2011/6/22,8:08:00,00-35.0100N,118-28.3100E,87,28.957,32.5035
126,2011/6/22,8:09:00,00-35.0300N,118-28.5400E,84,28.945,32.5078
127,2011/6/22,8:10:00,00-35.0600N,118-28.7600E,80,28.896,32.5143
128,2011/6/22,8:11:00,00-35.1200N,118-28.9900E,74,28.911,32.5108
129,2011/6/22,8:12:00,00-35.1900N,118-29.2300E,72,28.922,32.5125
130,2011/6/22,8:13:00,00-35.2600N,118-29.4500E,72,28.922,32.5086
131,2011/6/22,8:14:00,00-35.3300N,118-29.6800E,72,28.924,32.5168
132,2011/6/22,8:15:00,00-35.4000N,118-29.9000E,73,28.92,32.5206
133,2011/6/22,8:16:00,00-35.4600N,118-30.1300E,74,28.914,32.5125
134,2011/6/22,8:17:00,00-35.5300N,118-30.3600E,74,28.922,32.5115
135,2011/6/22,8:18:00,00-35.5900N,118-30.5900E,74,28.93,32.5116
136,2011/6/22,8:19:00,00-35.6600N,118-30.8200E,74,28.93,32.5122
137,2011/6/22,8:20:00,00-35.7300N,118-31.0500E,72,28.942,32.5137
138,2011/6/22,8:21:00,00-35.7900N,118-31.2800E,73,28.941,32.5152
139,2011/6/22,8:22:00,00-35.8600N,118-31.5000E,74,28.941,32.5167
140,2011/6/22,8:23:00,00-35.9200N,118-31.7400E,74,28.967,32.5192
141,2011/6/22,8:24:00,00-35.9900N,118-31.9600E,73,28.961,32.5224
142,2011/6/22,8:25:00,00-36.0500N,118-32.1900E,74,28.954,32.5223
143,2011/6/22,8:26:00,00-36.1200N,118-32.4200E,74,28.959,32.5179
144,2011/6/22,8:27:00,00-36.1800N,118-32.6500E,73,28.963,32.5194
145,2011/6/22,8:28:00,00-36.2500N,118-32.8800E,73,28.974,32.5192
146,2011/6/22,8:29:00,00-36.3200N,118-33.1100E,73,28.959,32.5182
147,2011/6/22,8:30:00,00-36.3800N,118-33.3300E,73,28.958,32.5199
148,2011/6/22,8:31:00,00-36.4500N,118-33.5600E,73,28.955,32.5203
149,2011/6/22,8:32:00,00-36.5200N,118-33.7900E,73,28.973,32.5217
150,2011/6/22,8:33:00,00-36.5900N,118-34.0100E,73,28.965,32.5178
151,2011/6/22,8:34:00,00-36.6500N,118-34.2300E,73,28.971,32.5152
152,2011/6/22,8:35:00,00-36.7200N,118-34.4500E,73,28.957,32.5149
153,2011/6/22,8:36:00,00-36.7800N,118-34.6800E,74,28.963,32.5157
154,2011/6/22,8:37:00,00-36.8400N,118-34.9000E,74,28.978,32.5152
155,2011/6/22,8:38:00,00-36.9100N,118-35.1300E,73,28.962,32.5155
156,2011/6/22,8:39:00,00-36.9800N,118-35.3700E,73,28.966,32.5134
157,2011/6/22,8:40:00,00-37.0500N,118-35.6000E,73,28.963,32.5114
158,2011/6/22,8:41:00,00-37.1100N,118-35.8200E,74,28.967,32.5119
159,2011/6/22,8:42:00,00-37.1700N,118-36.0500E,74,28.978,32.5133
160,2011/6/22,8:43:00,00-37.2400N,118-36.2700E,73,28.972,32.514
161,2011/6/22,8:44:00,00-37.3000N,118-36.5000E,73,28.98,32.5137
162,2011/6/22,8:45:00,00-37.3700N,118-36.7200E,73,28.98,32.5125
163,2011/6/22,8:46:00,00-37.4300N,118-36.9500E,73,28.967,32.5125
164,2011/6/22,8:47:00,00-37.5000N,118-37.1700E,73,28.977,32.5142
165,2011/6/22,8:48:00,00-37.5700N,118-37.3900E,74,28.972,32.5175
166,2011/6/22,8:49:00,00-37.6300N,118-37.6200E,74,28.979,32.5188
167,2011/6/22,8:50:00,00-37.6900N,118-37.8500E,74,29.003,32.5209
168,2011/6/22,8:51:00,00-37.7500N,118-38.0700E,74,29.004,32.524
169,2011/6/22,8:52:00,00-37.8200N,118-38.3000E,75,28.995,32.527
170,2011/6/22,8:53:00,00-37.8800N,118-38.5300E,75,28.985,32.5288
171,2011/6/22,8:54:00,00-37.9400N,118-38.7600E,75,28.996,32.5258
172,2011/6/22,8:55:00,00-37.9900N,118-38.9900E,75,28.973,32.5349
173,2011/6/22,8:56:00,00-38.0500N,118-39.2200E,76,28.956,32.5319
174,2011/6/22,8:57:00,00-38.1000N,118-39.4400E,76,28.943,32.5299
175,2011/6/22,8:58:00,00-38.1600N,118-39.6700E,77,28.93,32.5266
176,2011/6/22,8:59:00,00-38.2100N,118-39.9000E,77,28.899,32.5279
177,2011/6/22,9:00:00,00-38.2600N,118-40.1300E,76,28.914,32.5207
178,2011/6/22,9:01:00,00-38.3200N,118-40.3600E,76,28.925,32.5082
179,2011/6/22,9:02:00,00-38.3700N,118-40.5900E,76,28.924,32.5089
180,2011/6/22,9:03:00,00-38.4300N,118-40.8200E,76,28.917,32.5064
181,2011/6/22,9:04:00,00-38.4800N,118-41.0500E,76,28.918,32.5044
182,2011/6/22,9:05:00,00-38.5400N,118-41.2700E,76,28.9,32.5014
183,2011/6/22,9:06:00,00-38.6000N,118-41.5200E,76,28.914,32.4972
184,2011/6/22,9:07:00,00-38.6500N,118-41.7500E,77,28.911,32.4952
185,2011/6/22,9:08:00,00-38.7000N,118-41.9800E,76,28.912,32.4946
186,2011/6/22,9:09:00,00-38.7600N,118-42.2100E,76,28.925,32.4933
187,2011/6/22,9:10:00,00-38.8100N,118-42.4300E,76,28.912,32.4916
188,2011/6/22,9:11:00,00-38.8600N,118-42.6600E,77,28.909,32.4898
189,2011/6/22,9:12:00,00-38.9200N,118-42.8900E,77,28.911,32.4881
190,2011/6/22,9:13:00,00-38.9700N,118-43.1200E,76,28.924,32.4872
191,2011/6/22,9:14:00,00-39.0200N,118-43.3400E,76,28.93,32.4856
192,2011/6/22,9:15:00,00-39.0800N,118-43.5700E,76,28.93,32.4844
193,2011/6/22,9:16:00,00-39.1300N,118-43.8000E,77,28.941,32.4827
194,2011/6/22,9:17:00,00-39.1800N,118-44.0400E,78,28.915,32.4827
195,2011/6/22,9:18:00,00-39.2300N,118-44.2700E,77,28.915,32.4794
196,2011/6/22,9:19:00,00-39.2800N,118-44.5000E,77,28.91,32.476
197,2011/6/22,9:20:00,00-39.3400N,118-44.7300E,77,28.919,32.4729
198,2011/6/22,9:21:00,00-39.3900N,118-44.9600E,77,28.918,32.4679
199,2011/6/22,9:22:00,00-39.4400N,118-45.1900E,76,28.941,32.4645
200,2011/6/22,9:23:00,00-39.5000N,118-45.4200E,77,28.934,32.4605
201,2011/6/22,9:24:00,00-39.5500N,118-45.6600E,76,28.935,32.4609
202,2011/6/22,9:25:00,00-39.6100N,118-45.8900E,77,28.929,32.4595
203,2011/6/22,9:26:00,00-39.6600N,118-46.1300E,76,28.948,32.4556
204,2011/6/22,9:27:00,00-39.7200N,118-46.3600E,76,28.946,32.455
205,2011/6/22,9:28:00,00-39.7800N,118-46.6000E,76,28.952,32.4553
206,2011/6/22,9:29:00,00-39.8300N,118-46.8300E,76,28.941,32.4548
207,2011/6/22,9:30:00,00-39.8900N,118-47.0600E,76,28.96,32.4528
208,2011/6/22,9:31:00,00-39.9400N,118-47.3000E,77,28.968,32.4532
209,2011/6/22,9:32:00,00-40.0000N,118-47.5300E,76,28.955,32.4553
210,2011/6/22,9:33:00,00-40.0600N,118-47.7900E,75,28.952,32.4495
211,2011/6/22,9:34:00,00-40.1200N,118-48.0300E,75,28.962,32.4439
212,2011/6/22,9:35:00,00-40.1800N,118-48.2700E,77,28.938,32.4441
213,2011/6/22,9:36:00,00-40.2300N,118-48.5100E,77,28.921,32.4339
214,2011/6/22,9:37:00,00-40.2900N,118-48.7600E,76,28.951,32.4176
215,2011/6/22,9:38:00,00-40.3500N,118-48.9900E,75,28.95,32.427
216,2011/6/22,9:39:00,00-40.4100N,118-49.2300E,75,28.959,32.4355
217,2011/6/22,9:40:00,00-40.4700N,118-49.4700E,76,28.972,32.4299
218,2011/6/22,9:41:00,00-40.5200N,118-49.7100E,76,28.967,32.4328
219,2011/6/22,9:42:00,00-40.5800N,118-49.9500E,76,28.968,32.4324
220,2011/6/22,9:43:00,00-40.6400N,118-50.1800E,76,28.955,32.4275
221,2011/6/22,9:44:00,00-40.7000N,118-50.4200E,76,28.96,32.4274
222,2011/6/22,9:45:00,00-40.7600N,118-50.6600E,75,28.949,32.4215
223,2011/6/22,9:46:00,00-40.8200N,118-50.9000E,76,28.942,32.4237
224,2011/6/22,9:47:00,00-40.8800N,118-51.1400E,76,28.947,32.4235
225,2011/6/22,9:48:00,00-40.9400N,118-51.3700E,76,28.946,32.4162
226,2011/6/22,9:49:00,00-40.9900N,118-51.6100E,76,28.944,32.4161
227,2011/6/22,9:50:00,00-41.0500N,118-51.8500E,76,28.937,32.4153
228,2011/6/22,9:51:00,00-41.1100N,118-52.0900E,76,28.949,32.4142
229,2011/6/22,9:52:00,00-41.1600N,118-52.3200E,76,28.912,32.4104
230,2011/6/22,9:53:00,00-41.2200N,118-52.5600E,76,28.932,32.4048
231,2011/6/22,9:54:00,00-41.2800N,118-52.8000E,76,28.96,32.4021
232,2011/6/22,9:55:00,00-41.3400N,118-53.0400E,76,28.978,32.4037
233,2011/6/22,9:56:00,00-41.4000N,118-53.2700E,76,28.979,32.4088
234,2011/6/22,9:57:00,00-41.4600N,118-53.5100E,75,28.978,32.4107
235,2011/6/22,9:58:00,00-41.5200N,118-53.7400E,75,28.974,32.4083
236,2011/6/22,9:59:00,00-41.5800N,118-53.9900E,75,28.997,32.4065
237,2011/6/22,10:00:00,00-41.6500N,118-54.2400E,75,28.989,32.409
238,2011/6/22,10:01:00,00-41.7100N,118-54.4700E,76,28.973,32.414
239,2011/6/22,10:02:00,00-41.7700N,118-54.7100E,75,28.982,32.4121
240,2011/6/22,10:03:00,00-41.8200N,118-54.9400E,75,28.966,32.4149
241,2011/6/22,10:04:00,00-41.8800N,118-55.1800E,76,28.927,32.4264
242,2011/6/22,10:05:00,00-41.9400N,118-55.4200E,76,28.92,32.433
243,2011/6/22,10:06:00,00-42.0000N,118-55.6600E,76,28.925,32.434
244,2011/6/22,10:07:00,00-42.0500N,118-55.8900E,76,28.915,32.4319
245,2011/6/22,10:08:00,00-42.1100N,118-56.1300E,76,28.933,32.423
246,2011/6/22,10:09:00,00-42.1700N,118-56.3700E,76,28.931,32.4195
247,2011/6/22,10:10:00,00-42.2200N,118-56.6100E,77,28.929,32.4175
248,2011/6/22,10:11:00,00-42.2800N,118-56.8500E,77,28.907,32.4319
249,2011/6/22,10:12:00,00-42.3300N,118-57.0900E,76,28.904,32.447
250,2011/6/22,10:13:00,00-42.3900N,118-57.3300E,76,28.915,32.4636
251,2011/6/22,10:14:00,00-42.4500N,118-57.5700E,73,28.922,32.456
252,2011/6/22,10:15:00,00-42.5500N,118-57.7800E,60,28.933,32.4299
253,2011/6/22,10:16:00,00-42.7100N,118-57.9500E,45,28.924,32.4151
254,2011/6/22,10:17:00,00-42.8800N,118-58.1000E,41,28.908,32.4126
255,2011/6/22,10:18:00,00-43.0400N,118-58.2400E,40,28.866,32.4149
256,2011/6/22,10:19:00,00-43.2200N,118-58.4000E,40,28.866,32.452
257,2011/6/22,10:20:00,00-43.4000N,118-58.5500E,40,28.872,32.4806
258,2011/6/22,10:21:00,00-43.5800N,118-58.7000E,39,28.886,32.4859
259,2011/6/22,10:22:00,00-43.7700N,118-58.8500E,38,28.884,32.4767
260,2011/6/22,10:23:00,00-43.9500N,118-58.9900E,38,28.892,32.4737
261,2011/6/22,10:24:00,00-44.1400N,118-59.1400E,38,28.92,32.4691
262,2011/6/22,10:25:00,00-44.3300N,118-59.2900E,39,28.928,32.4526
263,2011/6/22,10:26:00,00-44.5100N,118-59.4400E,39,28.931,32.4383
264,2011/6/22,10:27:00,00-44.7100N,118-59.6000E,39,28.917,32.447
265,2011/6/22,10:28:00,00-44.9000N,118-59.7600E,39,28.927,32.4626
266,2011/6/22,10:29:00,00-45.0800N,118-59.9100E,38,28.945,32.4813
267,2011/6/22,10:30:00,00-45.2700N,119-00.0600E,38,28.941,32.4685
268,2011/6/22,10:31:00,00-45.4600N,119-00.2100E,38,28.927,32.4631
269,2011/6/22,10:32:00,00-45.6500N,119-00.3600E,38,28.922,32.4716
270,2011/6/22,10:33:00,00-45.8400N,119-00.5100E,38,28.934,32.4981
271,2011/6/22,10:34:00,00-46.0300N,119-00.6600E,38,28.938,32.4874
272,2011/6/22,10:35:00,00-46.2100N,119-00.8100E,38,28.928,32.493
273,2011/6/22,10:36:00,00-46.4100N,119-00.9600E,38,28.928,32.5019
274,2011/6/22,10:37:00,00-46.6000N,119-01.1100E,38,28.941,32.5065
275,2011/6/22,10:38:00,00-46.7800N,119-01.2600E,38,28.962,32.5104
276,2011/6/22,10:39:00,00-46.9700N,119-01.4100E,38,28.963,32.5032
277,2011/6/22,10:40:00,00-47.1600N,119-01.5600E,37,28.961,32.4861
278,2011/6/22,10:41:00,00-47.3500N,119-01.7100E,38,28.962,32.4818
279,2011/6/22,10:42:00,00-47.5400N,119-01.8600E,39,28.992,32.4843
280,2011/6/22,10:43:00,00-47.7300N,119-02.0200E,39,28.988,32.4733
281,2011/6/22,10:44:00,00-47.9200N,119-02.1700E,39,28.999,32.4581
282,2011/6/22,10:45:00,00-48.1100N,119-02.3300E,38,29.001,32.4697
283,2011/6/22,10:46:00,00-48.3100N,119-02.4900E,39,29.001,32.4693
284,2011/6/22,10:47:00,00-48.5000N,119-02.6400E,40,29.008,32.4784
285,2011/6/22,10:48:00,00-48.6900N,119-02.8000E,39,29.016,32.4818
286,2011/6/22,10:49:00,00-48.8800N,119-02.9500E,38,29.014,32.4857
287,2011/6/22,10:50:00,00-49.0700N,119-03.1100E,38,29.02,32.4908
288,2011/6/22,10:51:00,00-49.2700N,119-03.2700E,39,29.002,32.4924
289,2011/6/22,10:52:00,00-49.4600N,119-03.4200E,39,29.019,32.511
290,2011/6/22,10:53:00,00-49.6500N,119-03.5800E,38,29.021,32.524
291,2011/6/22,10:54:00,00-49.8700N,119-03.7500E,38,29.035,32.5174
292,2011/6/22,10:55:00,00-50.0600N,119-03.9000E,38,29.022,32.5306
293,2011/6/22,10:56:00,00-50.2500N,119-04.0500E,38,28.995,32.5412
294,2011/6/22,10:57:00,00-50.4400N,119-04.2100E,38,28.964,32.5682
295,2011/6/22,10:58:00,00-50.6400N,119-04.3600E,37,28.966,32.5946
296,2011/6/22,10:59:00,00-50.8300N,119-04.5000E,37,28.961,32.6017
297,2011/6/22,11:00:00,00-51.0300N,119-04.6500E,36,28.955,32.6114
298,2011/6/22,11:01:00,00-51.2200N,119-04.8000E,36,28.972,32.6166
299,2011/6/22,11:02:00,00-51.4200N,119-04.9400E,37,28.962,32.6227
300,2011/6/22,11:03:00,00-51.6200N,119-05.0800E,33,28.944,32.617
301,2011/6/22,11:04:00,00-51.8200N,119-05.2000E,30,28.942,32.6131
302,2011/6/22,11:05:00,00-52.0300N,119-05.3200E,30,28.95,32.6204
303,2011/6/22,11:06:00,00-52.2400N,119-05.4400E,29,28.946,32.6205
304,2011/6/22,11:07:00,00-52.4500N,119-05.5600E,29,28.931,32.624
305,2011/6/22,11:08:00,00-52.6500N,119-05.6800E,29,28.934,32.6305
306,2011/6/22,11:09:00,00-52.8600N,119-05.7900E,29,28.926,32.6425
307,2011/6/22,11:10:00,00-53.0700N,119-05.9100E,29,28.927,32.6449
308,2011/6/22,11:11:00,00-53.2800N,119-06.0300E,29,28.929,32.6469
309,2011/6/22,11:12:00,00-53.4800N,119-06.1500E,30,28.938,32.6448
310,2011/6/22,11:13:00,00-53.6900N,119-06.2700E,30,28.906,32.6495
311,2011/6/22,11:14:00,00-53.8900N,119-06.4000E,31,28.887,32.6474
312,2011/6/22,11:15:00,00-54.1000N,119-06.5200E,30,28.886,32.6703
313,2011/6/22,11:16:00,00-54.3000N,119-06.6400E,31,28.893,32.6701
314,2011/6/22,11:17:00,00-54.5100N,119-06.7700E,31,28.887,32.6631
315,2011/6/22,11:18:00,00-54.7200N,119-06.8900E,30,28.895,32.6626
316,2011/6/22,11:19:00,00-54.9200N,119-07.0100E,30,28.903,32.6651
317,2011/6/22,11:20:00,00-55.1300N,119-07.1300E,29,28.901,32.6554
318,2011/6/22,11:21:00,00-55.3300N,119-07.2500E,29,28.913,32.6495
319,2011/6/22,11:22:00,00-55.5600N,119-07.3800E,29,28.917,32.6569
320,2011/6/22,11:23:00,00-55.7600N,119-07.5000E,30,28.916,32.6665
321,2011/6/22,11:24:00,00-55.9600N,119-07.6200E,30,28.911,32.6796
322,2011/6/22,11:25:00,00-56.1700N,119-07.7300E,29,28.913,32.6882
323,2011/6/22,11:26:00,00-56.3800N,119-07.8500E,29,28.926,32.688
324,2011/6/22,11:27:00,00-56.5900N,119-07.9700E,30,28.921,32.692
325,2011/6/22,11:28:00,00-56.7900N,119-08.0900E,30,28.933,32.7051
326,2011/6/22,11:29:00,00-56.9900N,119-08.2100E,30,28.893,32.7084
327,2011/6/22,11:30:00,00-57.1900N,119-08.3300E,30,28.872,32.7301
328,2011/6/22,11:31:00,00-57.3900N,119-08.4500E,31,28.876,32.79
329,2011/6/22,11:32:00,00-57.5900N,119-08.5600E,30,28.88,32.8057
330,2011/6/22,11:33:00,00-57.7900N,119-08.6800E,29,28.902,32.8056
331,2011/6/22,11:34:00,00-57.9900N,119-08.8000E,30,28.905,32.8014
332,2011/6/22,11:35:00,00-58.1900N,119-08.9200E,30,28.901,32.7928
333,2011/6/22,11:36:00,00-58.4000N,119-09.0400E,30,28.903,32.7983
334,2011/6/22,11:37:00,00-58.6000N,119-09.1500E,29,28.888,32.8133
335,2011/6/22,11:38:00,00-58.8000N,119-09.2700E,30,28.897,32.8305
336,2011/6/22,11:39:00,00-59.0000N,119-09.3800E,30,28.895,32.8345
337,2011/6/22,11:40:00,00-59.2000N,119-09.5000E,30,28.883,32.8311
338,2011/6/22,11:41:00,00-59.4000N,119-09.6100E,30,28.869,32.8402
339,2011/6/22,11:42:00,00-59.6000N,119-09.7300E,29,28.877,32.8581
340,2011/6/22,11:43:00,00-59.8000N,119-09.8400E,30,28.881,32.8529
341,2011/6/22,11:44:00,01-00.0000N,119-09.9600E,30,28.878,32.8462
342,2011/6/22,11:45:00,01-00.2000N,119-10.0700E,26,28.875,32.8384
343,2011/6/22,11:46:00,01-00.4100N,119-10.1500E,15,28.875,32.8234
344,2011/6/22,11:47:00,01-00.6300N,119-10.1900E,10,28.88,32.8209
345,2011/6/22,11:48:00,01-00.8700N,119-10.2300E,7,28.889,32.8231
346,2011/6/22,11:49:00,01-01.1000N,119-10.2500E,6,28.892,32.8235
347,2011/6/22,11:50:00,01-01.3300N,119-10.2800E,5,28.875,32.8264
348,2011/6/22,11:51:00,01-01.5500N,119-10.3000E,4,28.886,32.8309
349,2011/6/22,11:52:00,01-01.7800N,119-10.3200E,4,28.899,32.8318
350,2011/6/22,11:53:00,01-02.0100N,119-10.3400E,4,28.892,32.8352
351,2011/6/22,11:54:00,01-02.2400N,119-10.3600E,4,28.889,32.8441
352,2011/6/22,11:55:00,01-02.4700N,119-10.3800E,5,28.883,32.8547
353,2011/6/22,11:56:00,01-02.7000N,119-10.4000E,5,28.882,32.8564
354,2011/6/22,11:57:00,01-02.9300N,119-10.4200E,4,28.889,32.8561
355,2011/6/22,11:58:00,01-03.1600N,119-10.4400E,3,28.898,32.8474
356,2011/6/22,11:59:00,01-03.4000N,119-10.4500E,4,28.904,32.8391
357,2011/6/22,12:00:00,01-03.6300N,119-10.4700E,4,28.908,32.8376
358,2011/6/22,12:01:00,01-03.8600N,119-10.4900E,4,28.901,32.8333
359,2011/6/22,12:02:00,01-04.1000N,119-10.5100E,4,28.909,32.8334
360,2011/6/22,12:03:00,01-04.3300N,119-10.5300E,4,28.898,32.8328
361,2011/6/22,12:04:00,01-04.5600N,119-10.5500E,5,28.905,32.8351
362,2011/6/22,12:05:00,01-04.8000N,119-10.5800E,6,28.905,32.8382
363,2011/6/22,12:06:00,01-05.0300N,119-10.6000E,6,28.887,32.84
364,2011/6/22,12:07:00,01-05.2700N,119-10.6200E,5,28.878,32.8391
365,2011/6/22,12:08:00,01-05.5000N,119-10.6400E,4,28.89,32.8386
366,2011/6/22,12:09:00,01-05.7300N,119-10.6600E,3,28.888,32.8343
367,2011/6/22,12:10:00,01-05.9700N,119-10.6800E,4,28.895,32.8344
368,2011/6/22,12:11:00,01-06.2100N,119-10.7000E,6,28.875,32.8437
369,2011/6/22,12:12:00,01-06.4400N,119-10.7300E,7,28.875,32.8462
370,2011/6/22,12:13:00,01-06.6800N,119-10.7600E,7,28.871,32.8465
371,2011/6/22,12:14:00,01-06.9100N,119-10.7900E,7,28.877,32.8451
372,2011/6/22,12:15:00,01-07.1600N,119-10.8300E,7,28.859,32.8582
373,2011/6/22,12:16:00,01-07.4000N,119-10.8600E,9,28.864,32.8563
374,2011/6/22,12:17:00,01-07.6300N,119-10.9000E,9,28.852,32.8841
375,2011/6/22,12:18:00,01-07.8600N,119-10.9400E,8,28.861,32.8932
376,2011/6/22,12:19:00,01-08.1000N,119-10.9700E,8,28.86,32.8933
377,2011/6/22,12:20:00,01-08.3300N,119-11.0100E,8,28.867,32.8911
378,2011/6/22,12:21:00,01-08.5700N,119-11.0400E,8,28.856,32.8734
379,2011/6/22,12:22:00,01-08.8100N,119-11.0700E,8,28.85,32.8661
380,2011/6/22,12:23:00,01-09.0400N,119-11.1100E,8,28.856,32.8798
381,2011/6/22,12:24:00,01-09.2700N,119-11.1500E,8,28.836,32.8967
382,2011/6/22,12:25:00,01-09.5200N,119-11.1800E,8,28.836,32.9098
383,2011/6/22,12:26:00,01-09.7500N,119-11.2100E,7,28.823,32.922
384,2011/6/22,12:27:00,01-09.9900N,119-11.2500E,7,28.812,32.9264